This is the latest recevied weather packets stored in our database for station/object W4CKA. If no packets are shown the sender has not sent any weather packets the latest 10 day(s).
| Time | Temp. | Humidity | Pressure | Rain* | Wind** | Luminosity | Snow |
|---|---|---|---|---|---|---|---|
| 1777709691 | 10° C | 64% | 1057.6 hPa | 0 mm | - | 0 W/m² | - |
| 1777709092 | 10.56° C | 65% | 1057.4 hPa | 0 mm | - | 0 W/m² | - |
| 1777708492 | 10.56° C | 68% | 1057.3 hPa | 0 mm | - | 0 W/m² | - |
| 1777707888 | 10.56° C | 65% | 1057.4 hPa | 0 mm | - | 0 W/m² | - |
| 1777707285 | 10.56° C | 68% | 1057.1 hPa | 0 mm | - | 0 W/m² | - |
| 1777706680 | 10.56° C | 68% | 1057.1 hPa | 0 mm | - | 0 W/m² | - |
| 1777706075 | 10.56° C | 69% | 1057 hPa | 0 mm | - | 0 W/m² | - |
| 1777705471 | 10.56° C | 69% | 1057.1 hPa | 0 mm | - | 0 W/m² | - |
| 1777704868 | 10.56° C | 69% | 1057 hPa | 0 mm | - | 0 W/m² | - |
| 1777704263 | 11.11° C | 68% | 1057.1 hPa | 0 mm | - | 0 W/m² | - |
| 1777703657 | 11.11° C | 67% | 1056.9 hPa | 0 mm | - | 0 W/m² | - |
| 1777703052 | 11.11° C | 67% | 1056.8 hPa | 0 mm | - | 0 W/m² | - |
| 1777702449 | 11.11° C | 67% | 1056.8 hPa | 0 mm | - | 0 W/m² | - |
| 1777701845 | 11.11° C | 71% | 1057 hPa | 0 mm | - | 0 W/m² | - |
| 1777701240 | 11.67° C | 70% | 1057.1 hPa | 0 mm | - | 0 W/m² | - |
| 1777700637 | 11.67° C | 69% | 1057.1 hPa | 0 mm | - | 0 W/m² | - |
| 1777700031 | 11.67° C | 68% | 1057 hPa | 0 mm | - | 0 W/m² | - |
| 1777699427 | 12.22° C | 67% | 1057 hPa | 0 mm | - | 0 W/m² | - |
| 1777698823 | 12.22° C | 67% | 1057 hPa | 0 mm | - | 0 W/m² | - |
| 1777698221 | 12.22° C | 68% | 1056.8 hPa | 0 mm | - | 0 W/m² | - |
| 1777697620 | 12.22° C | 68% | 1056.9 hPa | 0 mm | - | 0 W/m² | - |
| 1777697019 | 12.22° C | 69% | 1056.6 hPa | 0 mm | - | 0 W/m² | - |
| 1777696415 | 12.78° C | 69% | 1056.4 hPa | 0 mm | - | 0 W/m² | - |
| 1777695812 | 12.22° C | 70% | 1056.5 hPa | 0 mm | - | 0 W/m² | - |
| 1777695212 | 12.22° C | 70% | 1056.8 hPa | 0 mm | - | 0 W/m² | - |
* Rain latest hour (hover to see other rain measurements)
** Current wind speed in m/s (hover to see current wind gust speed)